timestamp,wind_dir_avg,wind_spd_avg,wind_spd_max_dir,wind_spd_gust,battery_voltage,lat,long
2022-02-13 00:04:01+00:00,233.0,11.37,239.0,15.2,12.41,47.59359,-54.27349
2022-02-13 00:14:01+00:00,232.0,8.69,227.0,9.6,12.33,47.59359,-54.27349
2022-02-13 00:24:01+00:00,237.0,7.46,236.0,8.5,12.33,47.59359,-54.27349
2022-02-13 00:34:01+00:00,234.0,7.37,237.0,8.04,12.33,47.59359,-54.27349
2022-02-13 00:44:01+00:00,228.0,8.91,247.0,13.84,12.33,47.59359,-54.27349
2022-02-13 00:54:01+00:00,223.0,7.98,224.0,10.1,12.33,47.59359,-54.27349
2022-02-13 01:04:01+00:00,224.0,10.27,239.0,14.96,12.33,47.59359,-54.27349
2022-02-13 01:14:01+00:00,221.0,9.29,236.0,14.6,12.33,47.59359,-54.27349
2022-02-13 01:24:01+00:00,223.0,8.98,219.0,10.48,12.33,47.59359,-54.27349
2022-02-13 01:34:01+00:00,221.0,9.09,213.0,11.32,12.33,47.59359,-54.27349
2022-02-13 01:44:01+00:00,226.0,8.93,246.0,14.17,12.33,47.59359,-54.27349
2022-02-13 01:54:01+00:00,224.0,8.07,227.0,9.69,12.33,47.59359,-54.27349
2022-02-13 02:04:01+00:00,230.0,7.78,231.0,9.94,12.33,47.59359,-54.27349
2022-02-13 02:14:01+00:00,229.0,9.66,234.0,14.2,12.25,47.59359,-54.27349
2022-02-13 02:24:01+00:00,233.0,9.91,243.0,14.1,12.25,47.59359,-54.27349
2022-02-13 02:34:01+00:00,229.0,10.16,241.0,14.4,12.25,47.59359,-54.27349
2022-02-13 02:44:01+00:00,231.0,10.78,233.0,15.09,12.25,47.59359,-54.27349
2022-02-13 02:54:01+00:00,227.0,10.64,238.0,14.71,12.25,47.59359,-54.27349
2022-02-13 03:04:01+00:00,217.0,12.15,230.0,15.43,12.25,47.59359,-54.27349
2022-02-13 03:14:01+00:00,222.0,14.05,228.0,16.72,12.25,47.59359,-54.27349
2022-02-13 03:24:01+00:00,216.0,12.82,227.0,16.89,12.25,47.59359,-54.27349
2022-02-13 03:34:01+00:00,215.0,12.94,226.0,16.22,12.25,47.59359,-54.27349
2022-02-13 03:44:01+00:00,217.0,10.63,215.0,12.45,12.25,47.59359,-54.27349
2022-02-13 03:54:01+00:00,217.0,10.18,215.0,11.44,12.25,47.59359,-54.27349
2022-02-13 04:04:01+00:00,222.0,9.43,223.0,10.49,12.25,47.59359,-54.27349
2022-02-13 04:14:01+00:00,220.0,9.38,224.0,10.3,12.25,47.59359,-54.27349
2022-02-13 04:24:01+00:00,219.0,9.2,215.0,10.38,12.25,47.59359,-54.27349
2022-02-13 04:34:01+00:00,219.0,9.5,228.0,10.63,12.25,47.59359,-54.27349
2022-02-13 04:44:01+00:00,216.0,10.48,217.0,12.29,12.25,47.59359,-54.27349
2022-02-13 04:54:01+00:00,215.0,10.27,228.0,13.56,12.25,47.59359,-54.27349
2022-02-13 05:04:01+00:00,213.0,10.9,211.0,12.64,12.25,47.59359,-54.27349
2022-02-13 05:14:01+00:00,215.0,11.44,215.0,13.58,12.25,47.59359,-54.27349
2022-02-13 05:24:01+00:00,210.0,12.84,213.0,14.85,12.25,47.59359,-54.27349
2022-02-13 05:34:01+00:00,211.0,12.43,212.0,14.35,12.25,47.59359,-54.27349
2022-02-13 05:44:01+00:00,207.0,11.58,210.0,13.38,12.25,47.59359,-54.27349
2022-02-13 05:54:01+00:00,209.0,11.38,214.0,12.36,12.25,47.59359,-54.27349
2022-02-13 06:04:01+00:00,209.0,11.45,218.0,13.22,12.25,47.59359,-54.27349
2022-02-13 06:14:00+00:00,211.0,12.33,217.0,15.23,12.25,47.59359,-54.27349
2022-02-13 06:24:00+00:00,210.0,12.04,208.0,13.93,12.25,47.59359,-54.27349
2022-02-13 06:34:00+00:00,206.0,12.42,208.0,15.2,12.25,47.59359,-54.27349
2022-02-13 06:44:00+00:00,204.0,13.16,206.0,15.07,12.25,47.59359,-54.27349
2022-02-13 06:54:00+00:00,205.0,12.94,208.0,14.62,12.25,47.59359,-54.27349
2022-02-13 07:04:00+00:00,207.0,12.31,205.0,14.76,12.25,47.59359,-54.27349
2022-02-13 07:14:00+00:00,206.0,12.4,196.0,14.68,12.25,47.59359,-54.27349
2022-02-13 07:24:00+00:00,207.0,12.02,200.0,13.59,12.25,47.59359,-54.27349
2022-02-13 07:34:00+00:00,212.0,13.48,223.0,17.72,12.25,47.59359,-54.27349
2022-02-13 07:44:00+00:00,209.0,13.83,224.0,17.49,12.25,47.59359,-54.27349
2022-02-13 07:54:00+00:00,212.0,12.69,225.0,17.8,12.25,47.59359,-54.27349
2022-02-13 08:04:00+00:00,217.0,11.49,230.0,16.39,12.25,47.59359,-54.27349
2022-02-13 08:14:01+00:00,219.0,8.6,224.0,9.48,12.25,47.59359,-54.27349
2022-02-13 08:24:01+00:00,226.0,11.21,231.0,15.62,12.25,47.59359,-54.27349
2022-02-13 08:34:01+00:00,217.0,8.27,234.0,11.07,12.25,47.59359,-54.27349
2022-02-13 08:44:01+00:00,209.0,7.01,235.0,10.05,12.25,47.59359,-54.27349
2022-02-13 08:54:01+00:00,216.0,5.23,219.0,6.54,12.25,47.59359,-54.27349
2022-02-13 09:04:01+00:00,209.0,4.29,230.0,5.41,12.25,47.59359,-54.27349
2022-02-13 09:14:01+00:00,200.0,5.96,201.0,8.22,12.25,47.59359,-54.27349
2022-02-13 09:24:01+00:00,208.0,5.92,216.0,7.37,12.25,47.59359,-54.27349
2022-02-13 09:34:01+00:00,209.0,5.47,229.0,8.11,12.25,47.59359,-54.27349
2022-02-13 09:44:01+00:00,218.0,5.26,252.0,9.98,12.25,47.59359,-54.27349
2022-02-13 09:54:01+00:00,256.0,10.19,256.0,13.33,12.25,47.59359,-54.27349
2022-02-13 10:04:01+00:00,222.0,4.78,236.0,6.28,12.25,47.59359,-54.27349
2022-02-13 10:14:00+00:00,232.0,5.36,243.0,7.66,12.25,47.59359,-54.27349
2022-02-13 10:24:00+00:00,212.0,5.34,219.0,6.88,12.25,47.59359,-54.27349
2022-02-13 10:34:00+00:00,211.0,6.6,230.0,8.96,12.25,47.59359,-54.27349
2022-02-13 10:44:00+00:00,218.0,5.46,228.0,7.14,12.25,47.59359,-54.27349
2022-02-13 10:54:00+00:00,228.0,6.19,231.0,7.78,12.25,47.59359,-54.27349
2022-02-13 11:04:00+00:00,234.0,6.61,235.0,7.41,12.25,47.59359,-54.27349
2022-02-13 11:14:01+00:00,234.0,6.76,235.0,7.45,12.25,47.59359,-54.27349
2022-02-13 11:24:01+00:00,226.0,7.64,227.0,9.37,12.25,47.59359,-54.27349
2022-02-13 11:34:01+00:00,227.0,6.82,231.0,8.02,12.25,47.59359,-54.27349
2022-02-13 11:44:01+00:00,236.0,7.54,231.0,9.49,12.25,47.59359,-54.27349
2022-02-13 11:54:01+00:00,228.0,6.87,230.0,8.03,12.25,47.59359,-54.27349
2022-02-13 12:04:01+00:00,226.0,7.75,227.0,9.45,12.25,47.59359,-54.27349
2022-02-13 12:14:01+00:00,230.0,7.41,229.0,8.39,12.73,47.59359,-54.27349
2022-02-13 12:24:01+00:00,229.0,7.26,235.0,8.42,12.73,47.59359,-54.27349
2022-02-13 12:34:01+00:00,229.0,7.66,230.0,8.48,12.73,47.59359,-54.27349
2022-02-13 12:44:01+00:00,229.0,7.62,228.0,8.45,12.73,47.59359,-54.27349
2022-02-13 12:54:01+00:00,233.0,7.83,229.0,9.18,12.73,47.59359,-54.27349
2022-02-13 13:04:01+00:00,228.0,7.34,232.0,8.21,12.73,47.59359,-54.27349
2022-02-13 13:14:00+00:00,227.0,7.22,218.0,8.98,13.6,47.59359,-54.27349
2022-02-13 13:24:00+00:00,222.0,7.01,217.0,7.89,13.6,47.59359,-54.27349
2022-02-13 13:34:00+00:00,220.0,6.94,217.0,7.96,13.6,47.59359,-54.27349
2022-02-13 13:44:00+00:00,212.0,7.63,218.0,8.62,13.6,47.59359,-54.27349
2022-02-13 13:54:00+00:00,205.0,7.67,207.0,8.51,13.6,47.59359,-54.27349
2022-02-13 14:04:00+00:00,214.0,7.46,217.0,8.04,13.6,47.59359,-54.27349
2022-02-13 14:14:00+00:00,215.0,7.21,216.0,8.23,13.6,47.59359,-54.27349
2022-02-13 14:24:00+00:00,225.0,7.77,218.0,9.43,13.6,47.59359,-54.27349
2022-02-13 14:34:00+00:00,216.0,7.37,218.0,8.98,13.6,47.59359,-54.27349
2022-02-13 14:44:00+00:00,224.0,7.41,227.0,8.91,13.6,47.59359,-54.27349
2022-02-13 14:54:00+00:00,218.0,8.16,218.0,9.45,13.6,47.59359,-54.27349
2022-02-13 15:04:00+00:00,228.0,8.64,228.0,10.4,13.6,47.59359,-54.27349
2022-02-13 15:14:00+00:00,233.0,7.48,237.0,8.52,13.68,47.59359,-54.27349
2022-02-13 15:24:00+00:00,253.0,7.85,259.0,12.35,13.68,47.59359,-54.27349
2022-02-13 15:34:00+00:00,233.0,8.17,234.0,9.43,13.68,47.59359,-54.27349
2022-02-13 15:44:00+00:00,239.0,7.98,237.0,8.81,13.68,47.59359,-54.27349
2022-02-13 15:54:00+00:00,242.0,8.19,239.0,9.2,13.68,47.59359,-54.27349
2022-02-13 16:04:00+00:00,237.0,7.45,239.0,8.35,13.68,47.59359,-54.27349
2022-02-13 16:14:00+00:00,243.0,8.69,253.0,12.96,13.92,47.59359,-54.27349
2022-02-13 16:24:00+00:00,241.0,7.53,242.0,8.3,13.92,47.59359,-54.27349
2022-02-13 16:34:00+00:00,238.0,7.57,236.0,8.59,13.92,47.59359,-54.27349
2022-02-13 16:44:00+00:00,255.0,12.74,257.0,14.29,13.92,47.59359,-54.27349
2022-02-13 16:54:00+00:00,246.0,9.99,251.0,13.22,13.92,47.59359,-54.27349
2022-02-13 17:04:00+00:00,251.0,7.58,253.0,9.92,13.92,47.59359,-54.27349
2022-02-13 17:14:01+00:00,255.0,7.67,261.0,13.06,14.32,47.59359,-54.27349
2022-02-13 17:24:01+00:00,253.0,8.51,256.0,13.08,14.32,47.59359,-54.27349
2022-02-13 17:34:01+00:00,260.0,8.74,261.0,12.8,14.32,47.59359,-54.27349
2022-02-13 17:44:01+00:00,253.0,6.83,255.0,7.83,14.32,47.59359,-54.27349
2022-02-13 17:54:01+00:00,264.0,12.92,267.0,14.21,14.32,47.59359,-54.27349
2022-02-13 18:04:01+00:00,260.0,6.8,262.0,7.43,14.32,47.59359,-54.27349
2022-02-13 18:14:01+00:00,262.0,8.12,264.0,12.21,13.68,47.59359,-54.27349
2022-02-13 18:24:01+00:00,249.0,6.44,249.0,7.18,13.68,47.59359,-54.27349
2022-02-13 18:34:01+00:00,255.0,11.04,252.0,13.68,13.68,47.59359,-54.27349
2022-02-13 18:44:01+00:00,244.0,8.7,254.0,12.66,13.68,47.59359,-54.27349
2022-02-13 18:54:01+00:00,238.0,7.42,237.0,8.31,13.68,47.59359,-54.27349
2022-02-13 19:04:01+00:00,241.0,7.54,240.0,8.27,13.68,47.59359,-54.27349
2022-02-13 19:14:01+00:00,243.0,7.28,239.0,7.95,14.16,47.59359,-54.27349
2022-02-13 19:24:01+00:00,238.0,8.13,237.0,8.81,14.16,47.59359,-54.27349
2022-02-13 19:34:01+00:00,236.0,7.92,238.0,8.71,14.16,47.59359,-54.27349
2022-02-13 19:44:01+00:00,241.0,7.3,239.0,7.85,14.16,47.59359,-54.27349
2022-02-13 19:54:01+00:00,240.0,7.18,240.0,8.03,14.16,47.59359,-54.27349
2022-02-13 20:04:01+00:00,250.0,7.2,252.0,8.19,14.16,47.59359,-54.27349
2022-02-13 20:14:00+00:00,254.0,7.34,256.0,7.98,13.05,47.59359,-54.27349
2022-02-13 20:24:00+00:00,250.0,8.29,252.0,9.6,13.05,47.59359,-54.27349
2022-02-13 20:34:00+00:00,253.0,8.18,263.0,9.57,13.05,47.59359,-54.27349
2022-02-13 20:44:00+00:00,265.0,8.83,270.0,9.89,13.05,47.59359,-54.27349
2022-02-13 20:54:00+00:00,257.0,8.59,259.0,10.21,13.05,47.59359,-54.27349
2022-02-13 21:04:00+00:00,271.0,9.75,273.0,10.28,13.05,47.59359,-54.27349
2022-02-13 21:14:01+00:00,250.0,5.01,254.0,9.99,12.49,47.59359,-54.27349
2022-02-13 21:24:01+00:00,260.0,9.45,262.0,10.46,12.49,47.59359,-54.27349
2022-02-13 21:34:01+00:00,236.0,3.0,240.0,4.09,12.49,47.59359,-54.27349
2022-02-13 21:44:01+00:00,234.0,4.45,241.0,5.42,12.49,47.59359,-54.27349
2022-02-13 21:54:01+00:00,243.0,7.82,248.0,9.63,12.49,47.59359,-54.27349
2022-02-13 22:04:01+00:00,241.0,6.12,248.0,9.16,12.49,47.59359,-54.27349
2022-02-13 22:14:01+00:00,234.0,4.95,248.0,9.33,12.41,47.59359,-54.27349
2022-02-13 22:24:01+00:00,250.0,4.83,259.0,9.08,12.41,47.59359,-54.27349
2022-02-13 22:34:01+00:00,257.0,3.87,257.0,4.24,12.41,47.59359,-54.27349
2022-02-13 22:44:01+00:00,252.0,4.26,266.0,7.66,12.41,47.59359,-54.27349
2022-02-13 22:54:01+00:00,238.0,4.39,233.0,4.95,12.41,47.59359,-54.27349
2022-02-13 23:04:01+00:00,232.0,4.75,230.0,5.03,12.41,47.59359,-54.27349
2022-02-13 23:14:01+00:00,246.0,4.8,253.0,7.95,12.41,47.59359,-54.27349
2022-02-13 23:24:01+00:00,262.0,4.32,269.0,7.86,12.41,47.59359,-54.27349
2022-02-13 23:34:01+00:00,302.0,3.68,308.0,4.67,12.41,47.59359,-54.27349
2022-02-13 23:44:01+00:00,310.0,4.69,305.0,5.66,12.41,47.59359,-54.27349
2022-02-13 23:54:01+00:00,322.0,4.51,319.0,5.73,12.41,47.59359,-54.27349
